Time,TemperatureF,DewpointF,PressureIn,WindDirection,WindDirectionDegrees,WindSpeedMPH,WindSpeedGustMPH,Humidity,HourlyPrecipIn,Conditions,Clouds,dailyrainin,SoftwareType,DateUTC
2013-03-19 00:02:00,25.0,24.0,-100.00,North,-999,-999.0,-999.0,98,-99.99,,,-99.99,,2013-03-19 07:02:00,
2013-03-19 00:12:00,25.0,24.0,-100.00,North,-999,-999.0,-999.0,98,-99.99,,,-99.99,,2013-03-19 07:12:00,
2013-03-19 00:21:00,24.0,23.0,-100.00,North,-999,-999.0,-999.0,98,-99.99,,,-99.99,,2013-03-19 07:21:00,
2013-03-19 00:32:00,24.0,23.0,-100.00,North,-999,-999.0,-999.0,98,-99.99,,,-99.99,,2013-03-19 07:32:00,
2013-03-19 00:42:00,24.0,23.0,-100.00,North,-999,-999.0,-999.0,98,-99.99,,,-99.99,,2013-03-19 07:42:00,
2013-03-19 00:52:00,24.0,24.0,-100.00,North,-999,-999.0,-999.0,98,-99.99,,,-99.99,,2013-03-19 07:52:00,
2013-03-19 01:02:00,24.0,24.0,-100.00,North,-999,-999.0,-999.0,97,-99.99,,,-99.99,,2013-03-19 08:02:00,
2013-03-19 01:12:00,24.0,24.0,-100.00,North,-999,-999.0,-999.0,97,-99.99,,,-99.99,,2013-03-19 08:12:00,
2013-03-19 01:22:00,24.0,24.0,-100.00,North,-999,-999.0,-999.0,98,-99.99,,,-99.99,,2013-03-19 08:22:00,
2013-03-19 01:32:00,24.0,24.0,-100.00,North,-999,-999.0,-999.0,98,-99.99,,,-99.99,,2013-03-19 08:32:00,
2013-03-19 01:42:00,24.0,24.0,-100.00,North,-999,-999.0,-999.0,98,-99.99,,,-99.99,,2013-03-19 08:42:00,
2013-03-19 01:52:00,24.0,23.0,-100.00,North,-999,-999.0,-999.0,96,-99.99,,,-99.99,,2013-03-19 08:52:00,
2013-03-19 02:02:00,24.0,24.0,-100.00,North,-999,-999.0,-999.0,97,-99.99,,,-99.99,,2013-03-19 09:02:00,
2013-03-19 02:12:00,24.0,24.0,-100.00,North,-999,-999.0,-999.0,97,-99.99,,,-99.99,,2013-03-19 09:12:00,
2013-03-19 02:22:00,25.0,25.0,-100.00,North,-999,-999.0,-999.0,97,-99.99,,,-99.99,,2013-03-19 09:22:00,
2013-03-19 02:32:00,26.0,25.0,-100.00,North,-999,-999.0,-999.0,95,-99.99,,,-99.99,,2013-03-19 09:32:00,
2013-03-19 02:42:00,26.0,25.0,-100.00,North,-999,-999.0,-999.0,95,-99.99,,,-99.99,,2013-03-19 09:42:00,
2013-03-19 02:53:00,27.0,26.0,-100.00,North,-999,-999.0,-999.0,94,-99.99,,,-99.99,,2013-03-19 09:53:00,
2013-03-19 03:03:00,27.0,26.0,-100.00,North,-999,-999.0,-999.0,96,-99.99,,,-99.99,,2013-03-19 10:03:00,
2013-03-19 03:12:00,27.0,26.0,-100.00,North,-999,-999.0,-999.0,96,-99.99,,,-99.99,,2013-03-19 10:12:00,
2013-03-19 03:23:00,27.0,26.0,-100.00,North,-999,-999.0,-999.0,97,-99.99,,,-99.99,,2013-03-19 10:23:00,
2013-03-19 03:32:00,28.0,27.0,-100.00,North,-999,-999.0,-999.0,95,-99.99,,,-99.99,,2013-03-19 10:32:00,
2013-03-19 03:42:00,28.0,27.0,-100.00,North,-999,-999.0,-999.0,95,-99.99,,,-99.99,,2013-03-19 10:42:00,
2013-03-19 03:53:00,28.0,26.0,-100.00,North,-999,-999.0,-999.0,95,-99.99,,,-99.99,,2013-03-19 10:53:00,
2013-03-19 04:02:00,28.0,26.0,-100.00,North,-999,-999.0,-999.0,91,-99.99,,,-99.99,,2013-03-19 11:02:00,
2013-03-19 04:12:00,28.0,26.0,-100.00,North,-999,-999.0,-999.0,91,-99.99,,,-99.99,,2013-03-19 11:12:00,
2013-03-19 04:22:00,27.0,25.0,-100.00,North,-999,-999.0,-999.0,92,-99.99,,,-99.99,,2013-03-19 11:22:00,
2013-03-19 04:32:00,27.0,26.0,-100.00,North,-999,-999.0,-999.0,95,-99.99,,,-99.99,,2013-03-19 11:32:00,
2013-03-19 04:42:00,27.0,26.0,-100.00,North,-999,-999.0,-999.0,95,-99.99,,,-99.99,,2013-03-19 11:42:00,
2013-03-19 04:52:00,27.0,26.0,-100.00,North,-999,-999.0,-999.0,96,-99.99,,,-99.99,,2013-03-19 11:52:00,
2013-03-19 05:02:00,27.0,26.0,-100.00,North,-999,-999.0,-999.0,95,-99.99,,,-99.99,,2013-03-19 12:02:00,
2013-03-19 05:12:00,27.0,26.0,-100.00,North,-999,-999.0,-999.0,95,-99.99,,,-99.99,,2013-03-19 12:12:00,
2013-03-19 05:22:00,27.0,26.0,-100.00,North,-999,-999.0,-999.0,96,-99.99,,,-99.99,,2013-03-19 12:22:00,
2013-03-19 05:32:00,27.0,26.0,-100.00,North,-999,-999.0,-999.0,96,-99.99,,,-99.99,,2013-03-19 12:32:00,
2013-03-19 05:42:00,27.0,26.0,-100.00,North,-999,-999.0,-999.0,96,-99.99,,,-99.99,,2013-03-19 12:42:00,
2013-03-19 05:52:00,27.0,25.0,-100.00,North,-999,-999.0,-999.0,92,-99.99,,,-99.99,,2013-03-19 12:52:00,
2013-03-19 06:02:00,27.0,26.0,-100.00,North,-999,-999.0,-999.0,94,-99.99,,,-99.99,,2013-03-19 13:02:00,
2013-03-19 06:12:00,27.0,26.0,-100.00,North,-999,-999.0,-999.0,94,-99.99,,,-99.99,,2013-03-19 13:12:00,
2013-03-19 06:22:00,27.0,26.0,-100.00,North,-999,-999.0,-999.0,95,-99.99,,,-99.99,,2013-03-19 13:22:00,
2013-03-19 06:32:00,27.0,26.0,-100.00,North,-999,-999.0,-999.0,95,-99.99,,,-99.99,,2013-03-19 13:32:00,
2013-03-19 06:42:00,27.0,26.0,-100.00,North,-999,-999.0,-999.0,95,-99.99,,,-99.99,,2013-03-19 13:42:00,
2013-03-19 06:52:00,27.0,26.0,-100.00,North,-999,-999.0,-999.0,94,-99.99,,,-99.99,,2013-03-19 13:52:00,
2013-03-19 07:02:00,27.0,26.0,-100.00,North,-999,-999.0,-999.0,95,-99.99,,,-99.99,,2013-03-19 14:02:00,
2013-03-19 07:12:00,27.0,26.0,-100.00,North,-999,-999.0,-999.0,95,-99.99,,,-99.99,,2013-03-19 14:12:00,
2013-03-19 07:22:00,28.0,26.0,-100.00,North,-999,-999.0,-999.0,92,-99.99,,,-99.99,,2013-03-19 14:22:00,
2013-03-19 07:32:00,28.0,26.0,-100.00,North,-999,-999.0,-999.0,91,-99.99,,,-99.99,,2013-03-19 14:32:00,
2013-03-19 07:42:00,28.0,26.0,-100.00,North,-999,-999.0,-999.0,91,-99.99,,,-99.99,,2013-03-19 14:42:00,
2013-03-19 07:52:00,28.0,25.0,-100.00,North,-999,-999.0,-999.0,90,-99.99,,,-99.99,,2013-03-19 14:52:00,
2013-03-19 08:02:00,28.0,26.0,-100.00,North,-999,-999.0,-999.0,92,-99.99,,,-99.99,,2013-03-19 15:02:00,
2013-03-19 08:12:00,28.0,26.0,-100.00,North,-999,-999.0,-999.0,92,-99.99,,,-99.99,,2013-03-19 15:12:00,
2013-03-19 08:22:00,28.0,26.0,-100.00,North,-999,-999.0,-999.0,92,-99.99,,,-99.99,,2013-03-19 15:22:00,
2013-03-19 08:33:00,29.0,26.0,-100.00,North,-999,-999.0,-999.0,89,-99.99,,,-99.99,,2013-03-19 15:33:00,
2013-03-19 08:43:00,29.0,26.0,-100.00,North,-999,-999.0,-999.0,89,-99.99,,,-99.99,,2013-03-19 15:43:00,
2013-03-19 08:53:00,29.0,27.0,-100.00,North,-999,-999.0,-999.0,91,-99.99,,,-99.99,,2013-03-19 15:53:00,
2013-03-19 09:03:00,29.0,27.0,-100.00,North,-999,-999.0,-999.0,92,-99.99,,,-99.99,,2013-03-19 16:03:00,
2013-03-19 09:13:00,29.0,27.0,-100.00,North,-999,-999.0,-999.0,92,-99.99,,,-99.99,,2013-03-19 16:13:00,
2013-03-19 09:23:00,30.0,27.0,-100.00,North,-999,-999.0,-999.0,90,-99.99,,,-99.99,,2013-03-19 16:23:00,
2013-03-19 09:33:00,31.0,28.0,-100.00,North,-999,-999.0,-999.0,88,-99.99,,,-99.99,,2013-03-19 16:33:00,
2013-03-19 09:43:00,31.0,28.0,-100.00,North,-999,-999.0,-999.0,88,-99.99,,,-99.99,,2013-03-19 16:43:00,
2013-03-19 09:54:00,31.0,28.0,-100.00,North,-999,-999.0,-999.0,86,-99.99,,,-99.99,,2013-03-19 16:54:00,
2013-03-19 10:02:00,32.0,27.0,-100.00,North,-999,-999.0,-999.0,84,-99.99,,,-99.99,,2013-03-19 17:02:00,
2013-03-19 10:13:00,32.0,27.0,-100.00,North,-999,-999.0,-999.0,84,-99.99,,,-99.99,,2013-03-19 17:13:00,
2013-03-19 10:23:00,32.0,28.0,-100.00,North,-999,-999.0,-999.0,88,-99.99,,,-99.99,,2013-03-19 17:23:00,
2013-03-19 10:34:00,32.0,27.0,-100.00,North,-999,-999.0,-999.0,83,-99.99,,,-99.99,,2013-03-19 17:34:00,
2013-03-19 10:43:00,32.0,27.0,-100.00,North,-999,-999.0,-999.0,83,-99.99,,,-99.99,,2013-03-19 17:43:00,
2013-03-19 10:53:00,32.0,28.0,-100.00,North,-999,-999.0,-999.0,84,-99.99,,,-99.99,,2013-03-19 17:53:00,
2013-03-19 11:02:00,33.0,28.0,-100.00,North,-999,-999.0,-999.0,82,-99.99,,,-99.99,,2013-03-19 18:02:00,
2013-03-19 11:13:00,33.0,28.0,-100.00,North,-999,-999.0,-999.0,82,-99.99,,,-99.99,,2013-03-19 18:13:00,
2013-03-19 11:23:00,33.0,31.0,-100.00,North,-999,-999.0,-999.0,91,-99.99,,,-99.99,,2013-03-19 18:23:00,
2013-03-19 11:33:00,34.0,31.0,-100.00,North,-999,-999.0,-999.0,87,-99.99,,,-99.99,,2013-03-19 18:33:00,
2013-03-19 11:42:00,34.0,31.0,-100.00,North,-999,-999.0,-999.0,87,-99.99,,,-99.99,,2013-03-19 18:42:00,
2013-03-19 11:53:00,35.0,28.0,-100.00,North,-999,-999.0,-999.0,76,-99.99,,,-99.99,,2013-03-19 18:53:00,
2013-03-19 12:02:00,36.0,29.0,-100.00,North,-999,-999.0,-999.0,77,-99.99,,,-99.99,,2013-03-19 19:02:00,
2013-03-19 12:12:00,36.0,29.0,-100.00,North,-999,-999.0,-999.0,77,-99.99,,,-99.99,,2013-03-19 19:12:00,
2013-03-19 12:22:00,36.0,27.0,-100.00,North,-999,-999.0,-999.0,70,-99.99,,,-99.99,,2013-03-19 19:22:00,
2013-03-19 12:32:00,36.0,25.0,-100.00,North,-999,-999.0,-999.0,64,-99.99,,,-99.99,,2013-03-19 19:32:00,
2013-03-19 12:42:00,36.0,25.0,-100.00,North,-999,-999.0,-999.0,64,-99.99,,,-99.99,,2013-03-19 19:42:00,
2013-03-19 12:53:00,37.0,29.0,-100.00,North,-999,-999.0,-999.0,70,-99.99,,,-99.99,,2013-03-19 19:53:00,
2013-03-19 13:02:00,37.0,31.0,-100.00,North,-999,-999.0,-999.0,78,-99.99,,,-99.99,,2013-03-19 20:02:00,
2013-03-19 13:12:00,37.0,31.0,-100.00,North,-999,-999.0,-999.0,78,-99.99,,,-99.99,,2013-03-19 20:12:00,
2013-03-19 13:22:00,36.0,32.0,-100.00,North,-999,-999.0,-999.0,85,-99.99,,,-99.99,,2013-03-19 20:22:00,
2013-03-19 13:32:00,37.0,26.0,-100.00,North,-999,-999.0,-999.0,64,-99.99,,,-99.99,,2013-03-19 20:32:00,
2013-03-19 13:42:00,37.0,26.0,-100.00,North,-999,-999.0,-999.0,64,-99.99,,,-99.99,,2013-03-19 20:42:00,
2013-03-19 13:52:00,37.0,27.0,-100.00,North,-999,-999.0,-999.0,67,-99.99,,,-99.99,,2013-03-19 20:52:00,
2013-03-19 14:02:00,36.0,27.0,-100.00,North,-999,-999.0,-999.0,70,-99.99,,,-99.99,,2013-03-19 21:02:00,
2013-03-19 14:11:00,36.0,27.0,-100.00,North,-999,-999.0,-999.0,70,-99.99,,,-99.99,,2013-03-19 21:11:00,
2013-03-19 14:22:00,36.0,30.0,-100.00,North,-999,-999.0,-999.0,78,-99.99,,,-99.99,,2013-03-19 21:22:00,
2013-03-19 14:33:00,36.0,29.0,-100.00,North,-999,-999.0,-999.0,75,-99.99,,,-99.99,,2013-03-19 21:33:00,
2013-03-19 14:42:00,36.0,29.0,-100.00,North,-999,-999.0,-999.0,75,-99.99,,,-99.99,,2013-03-19 21:42:00,
2013-03-19 14:53:00,36.0,29.0,-100.00,North,-999,-999.0,-999.0,75,-99.99,,,-99.99,,2013-03-19 21:53:00,
2013-03-19 15:03:00,36.0,30.0,-100.00,North,-999,-999.0,-999.0,77,-99.99,,,-99.99,,2013-03-19 22:03:00,
2013-03-19 15:12:00,36.0,30.0,-100.00,North,-999,-999.0,-999.0,77,-99.99,,,-99.99,,2013-03-19 22:12:00,
2013-03-19 15:23:00,36.0,29.0,-100.00,North,-999,-999.0,-999.0,76,-99.99,,,-99.99,,2013-03-19 22:23:00,
2013-03-19 15:33:00,36.0,28.0,-100.00,North,-999,-999.0,-999.0,72,-99.99,,,-99.99,,2013-03-19 22:33:00,
2013-03-19 15:43:00,36.0,28.0,-100.00,North,-999,-999.0,-999.0,72,-99.99,,,-99.99,,2013-03-19 22:43:00,
2013-03-19 15:53:00,37.0,30.0,-100.00,North,-999,-999.0,-999.0,76,-99.99,,,-99.99,,2013-03-19 22:53:00,
2013-03-19 16:02:00,38.0,28.0,-100.00,North,-999,-999.0,-999.0,65,-99.99,,,-99.99,,2013-03-19 23:02:00,
2013-03-19 16:12:00,38.0,28.0,-100.00,North,-999,-999.0,-999.0,65,-99.99,,,-99.99,,2013-03-19 23:12:00,
2013-03-19 16:22:00,38.0,31.0,-100.00,North,-999,-999.0,-999.0,74,-99.99,,,-99.99,,2013-03-19 23:22:00,
2013-03-19 16:32:00,37.0,30.0,-100.00,North,-999,-999.0,-999.0,76,-99.99,,,-99.99,,2013-03-19 23:32:00,
2013-03-19 16:42:00,37.0,30.0,-100.00,North,-999,-999.0,-999.0,76,-99.99,,,-99.99,,2013-03-19 23:42:00,
2013-03-19 16:52:00,36.0,31.0,-100.00,North,-999,-999.0,-999.0,79,-99.99,,,-99.99,,2013-03-19 23:52:00,
2013-03-19 17:02:00,36.0,32.0,-100.00,North,-999,-999.0,-999.0,85,-99.99,,,-99.99,,2013-03-20 00:02:00,
2013-03-19 17:12:00,36.0,32.0,-100.00,North,-999,-999.0,-999.0,85,-99.99,,,-99.99,,2013-03-20 00:12:00,
2013-03-19 17:22:00,36.0,32.0,-100.00,North,-999,-999.0,-999.0,87,-99.99,,,-99.99,,2013-03-20 00:22:00,
2013-03-19 17:32:00,35.0,33.0,-100.00,North,-999,-999.0,-999.0,92,-99.99,,,-99.99,,2013-03-20 00:32:00,
2013-03-19 17:42:00,35.0,33.0,-100.00,North,-999,-999.0,-999.0,92,-99.99,,,-99.99,,2013-03-20 00:42:00,
2013-03-19 17:52:00,35.0,33.0,-100.00,North,-999,-999.0,-999.0,94,-99.99,,,-99.99,,2013-03-20 00:52:00,
2013-03-19 18:02:00,34.0,33.0,-100.00,North,-999,-999.0,-999.0,96,-99.99,,,-99.99,,2013-03-20 01:02:00,
2013-03-19 18:12:00,34.0,33.0,-100.00,North,-999,-999.0,-999.0,96,-99.99,,,-99.99,,2013-03-20 01:12:00,
2013-03-19 18:22:00,34.0,32.0,-100.00,North,-999,-999.0,-999.0,93,-99.99,,,-99.99,,2013-03-20 01:22:00,
2013-03-19 18:32:00,34.0,33.0,-100.00,North,-999,-999.0,-999.0,95,-99.99,,,-99.99,,2013-03-20 01:32:00,
2013-03-19 18:42:00,34.0,33.0,-100.00,North,-999,-999.0,-999.0,95,-99.99,,,-99.99,,2013-03-20 01:42:00,
2013-03-19 18:52:00,33.0,32.0,-100.00,North,-999,-999.0,-999.0,96,-99.99,,,-99.99,,2013-03-20 01:52:00,
2013-03-19 19:02:00,33.0,33.0,-100.00,North,-999,-999.0,-999.0,98,-99.99,,,-99.99,,2013-03-20 02:02:00,
2013-03-19 19:11:00,33.0,33.0,-100.00,North,-999,-999.0,-999.0,98,-99.99,,,-99.99,,2013-03-20 02:11:00,
2013-03-19 19:22:00,33.0,33.0,-100.00,North,-999,-999.0,-999.0,98,-99.99,,,-99.99,,2013-03-20 02:22:00,
2013-03-19 19:32:00,33.0,33.0,-100.00,North,-999,-999.0,-999.0,99,-99.99,,,-99.99,,2013-03-20 02:32:00,
2013-03-19 19:42:00,33.0,33.0,-100.00,North,-999,-999.0,-999.0,99,-99.99,,,-99.99,,2013-03-20 02:42:00,
2013-03-19 19:53:00,33.0,33.0,-100.00,North,-999,-999.0,-999.0,101,-99.99,,,-99.99,,2013-03-20 02:53:00,
2013-03-19 20:02:00,33.0,33.0,-100.00,North,-999,-999.0,-999.0,101,-99.99,,,-99.99,,2013-03-20 03:02:00,
2013-03-19 20:12:00,33.0,33.0,-100.00,North,-999,-999.0,-999.0,101,-99.99,,,-99.99,,2013-03-20 03:12:00,
2013-03-19 20:22:00,34.0,34.0,-100.00,North,-999,-999.0,-999.0,101,-99.99,,,-99.99,,2013-03-20 03:22:00,
2013-03-19 20:33:00,33.0,33.0,-100.00,North,-999,-999.0,-999.0,101,-99.99,,,-99.99,,2013-03-20 03:33:00,
2013-03-19 20:42:00,33.0,33.0,-100.00,North,-999,-999.0,-999.0,101,-99.99,,,-99.99,,2013-03-20 03:42:00,
2013-03-19 20:53:00,34.0,34.0,-100.00,North,-999,-999.0,-999.0,101,-99.99,,,-99.99,,2013-03-20 03:53:00,
2013-03-19 21:02:00,34.0,33.0,-100.00,North,-999,-999.0,-999.0,97,-99.99,,,-99.99,,2013-03-20 04:02:00,
2013-03-19 21:12:00,34.0,33.0,-100.00,North,-999,-999.0,-999.0,97,-99.99,,,-99.99,,2013-03-20 04:12:00,
2013-03-19 21:22:00,34.0,33.0,-100.00,North,-999,-999.0,-999.0,98,-99.99,,,-99.99,,2013-03-20 04:22:00,
2013-03-19 21:32:00,34.0,33.0,-100.00,North,-999,-999.0,-999.0,99,-99.99,,,-99.99,,2013-03-20 04:32:00,
2013-03-19 21:43:00,34.0,33.0,-100.00,North,-999,-999.0,-999.0,99,-99.99,,,-99.99,,2013-03-20 04:43:00,
2013-03-19 21:52:00,34.0,34.0,-100.00,North,-999,-999.0,-999.0,101,-99.99,,,-99.99,,2013-03-20 04:52:00,
2013-03-19 22:02:00,33.0,33.0,-100.00,North,-999,-999.0,-999.0,101,-99.99,,,-99.99,,2013-03-20 05:02:00,
2013-03-19 22:12:00,33.0,33.0,-100.00,North,-999,-999.0,-999.0,101,-99.99,,,-99.99,,2013-03-20 05:12:00,
2013-03-19 22:22:00,34.0,34.0,-100.00,North,-999,-999.0,-999.0,101,-99.99,,,-99.99,,2013-03-20 05:22:00,
2013-03-19 22:32:00,34.0,34.0,-100.00,North,-999,-999.0,-999.0,101,-99.99,,,-99.99,,2013-03-20 05:32:00,
2013-03-19 22:42:00,34.0,34.0,-100.00,North,-999,-999.0,-999.0,101,-99.99,,,-99.99,,2013-03-20 05:42:00,
2013-03-19 22:53:00,33.0,33.0,-100.00,North,-999,-999.0,-999.0,101,-99.99,,,-99.99,,2013-03-20 05:53:00,
2013-03-19 23:02:00,33.0,33.0,-100.00,North,-999,-999.0,-999.0,101,-99.99,,,-99.99,,2013-03-20 06:02:00,
2013-03-19 23:12:00,33.0,33.0,-100.00,North,-999,-999.0,-999.0,101,-99.99,,,-99.99,,2013-03-20 06:12:00,
2013-03-19 23:22:00,33.0,33.0,-100.00,North,-999,-999.0,-999.0,101,-99.99,,,-99.99,,2013-03-20 06:22:00,
2013-03-19 23:32:00,33.0,33.0,-100.00,North,-999,-999.0,-999.0,101,-99.99,,,-99.99,,2013-03-20 06:32:00,
2013-03-19 23:42:00,33.0,33.0,-100.00,North,-999,-999.0,-999.0,101,-99.99,,,-99.99,,2013-03-20 06:42:00,
2013-03-19 23:52:00,33.0,33.0,-100.00,North,-999,-999.0,-999.0,101,-99.99,,,-99.99,,2013-03-20 06:52:00,